Meteo pe oră la Bolshoe Korovino

Astăzi, 10 Mai, Luni

Timp Temperatura Precipitaţii Vânt Presiune Umiditate
00:00 +3°C° 0 mm 4 m/s 748 mmHg 89%
01:00 +1°C° 0 mm 4 m/s 748 mmHg 89%
02:00 +1°C° 0 mm 4 m/s 749 mmHg 89%
03:00 +1°C° 0 mm 4 m/s 749 mmHg 88%
04:00 +1°C° 0 mm 4 m/s 750 mmHg 87%
05:00 +1°C° 0 mm 5 m/s 750 mmHg 87%
06:00 +1°C° 0 mm 5 m/s 751 mmHg 86%
07:00 +3°C° 0 mm 6 m/s 751 mmHg 78%
08:00 +4°C° 0 mm 6 m/s 751 mmHg 71%
09:00 +6°C° 0 mm 7 m/s 752 mmHg 64%
10:00 +8°C° 0 mm 7 m/s 752 mmHg 59%
11:00 +9°C° 0 mm 7 m/s 752 mmHg 54%
12:00 +10°C° 0 mm 8 m/s 752 mmHg 49%
13:00 +10°C° 0 mm 7 m/s 752 mmHg 50%
14:00 +11°C° 0 mm 7 m/s 752 mmHg 50%
15:00 +11°C° 0 mm 7 m/s 752 mmHg 50%
16:00 +11°C° 0 mm 7 m/s 752 mmHg 54%
17:00 +11°C° 0 mm 7 m/s 752 mmHg 58%
18:00 +10°C° 0 mm 6 m/s 752 mmHg 62%
19:00 +9°C° 0 mm 6 m/s 752 mmHg 67%
20:00 +8°C° 0 mm 5 m/s 752 mmHg 71%
21:00 +7°C° 0 mm 4 m/s 752 mmHg 75%
22:00 +7°C° 0 mm 5 m/s 753 mmHg 77%
23:00 +7°C° 0 mm 5 m/s 753 mmHg 78%

Mâine, 11 Mai, Marţi

Timp Temperatura Precipitaţii Vânt Presiune Umiditate
00:00 +6°C° 0 mm 5 m/s 753 mmHg 79%
01:00 +6°C° 0 mm 5 m/s 752 mmHg 82%
02:00 +6°C° 0 mm 5 m/s 752 mmHg 85%
03:00 +5°C° 0 mm 5 m/s 752 mmHg 88%
04:00 +5°C° 0 mm 5 m/s 752 mmHg 88%
05:00 +6°C° 0 mm 5 m/s 752 mmHg 88%
06:00 +5°C° 0 mm 6 m/s 752 mmHg 88%
07:00 +8°C° 0 mm 6 m/s 752 mmHg 84%
08:00 +9°C° 0 mm 7 m/s 752 mmHg 80%
09:00 +11°C° 0 mm 7 m/s 752 mmHg 76%
10:00 +14°C° 0 mm 7 m/s 752 mmHg 72%
11:00 +16°C° 0 mm 7 m/s 752 mmHg 69%
12:00 +18°C° 0 mm 7 m/s 752 mmHg 66%
13:00 +18°C° 0 mm 7 m/s 752 mmHg 64%
14:00 +20°C° 0 mm 7 m/s 752 mmHg 63%
15:00 +21°C° 0 mm 7 m/s 751 mmHg 61%
16:00 +20°C° 0.7 mm 6 m/s 752 mmHg 68%
17:00 +17°C° 0.7 mm 6 m/s 752 mmHg 75%
18:00 +16°C° 0.7 mm 5 m/s 752 mmHg 82%
19:00 +14°C° 0.1 mm 4 m/s 753 mmHg 86%
20:00 +13°C° 0.1 mm 3 m/s 753 mmHg 90%
21:00 +11°C° 0.1 mm 3 m/s 754 mmHg 94%
22:00 +10°C° 0 mm 2 m/s 754 mmHg 92%
23:00 +9°C° 0 mm 2 m/s 754 mmHg 91%

Poimâine, 12 Mai, Miercuri

Timp Temperatura Precipitaţii Vânt Presiune Umiditate
00:00 +9°C° 0 mm 1 m/s 754 mmHg 90%
01:00 +9°C° 0 mm 1 m/s 754 mmHg 89%
02:00 +9°C° 0 mm 1 m/s 754 mmHg 88%
03:00 +8°C° 0 mm 1 m/s 754 mmHg 87%
04:00 +9°C° 0.1 mm 1 m/s 753 mmHg 88%
05:00 +9°C° 0.1 mm 1 m/s 753 mmHg 88%
06:00 +10°C° 0.1 mm 1 m/s 753 mmHg 88%
07:00 +10°C° 0.4 mm 1 m/s 753 mmHg 90%
08:00 +9°C° 0.4 mm 2 m/s 752 mmHg 91%
09:00 +9°C° 0.4 mm 2 m/s 751 mmHg 93%
10:00 +10°C° 0.5 mm 3 m/s 751 mmHg 93%
11:00 +11°C° 0.5 mm 4 m/s 750 mmHg 94%
12:00 +12°C° 0.5 mm 5 m/s 750 mmHg 94%
13:00 +13°C° 0.3 mm 6 m/s 749 mmHg 92%
14:00 +12°C° 0.3 mm 7 m/s 749 mmHg 90%
15:00 +13°C° 0.3 mm 8 m/s 748 mmHg 88%
16:00 +12°C° 0.9 mm 7 m/s 749 mmHg 88%
17:00 +11°C° 0.9 mm 7 m/s 749 mmHg 89%
18:00 +9°C° 0.9 mm 6 m/s 749 mmHg 90%
19:00 +8°C° 0 mm 4 m/s 750 mmHg 91%
20:00 +8°C° 0 mm 3 m/s 750 mmHg 92%
21:00 +7°C° 0 mm 2 m/s 750 mmHg 94%
22:00 +7°C° 0 mm 2 m/s 750 mmHg 94%
23:00 +7°C° 0 mm 2 m/s 750 mmHg 94%

13 Mai, Joi

Timp Temperatura Precipitaţii Vânt Presiune Umiditate
00:00 +7°C° 0 mm 3 m/s 750 mmHg 94%
01:00 +7°C° 0 mm 3 m/s 750 mmHg 95%
02:00 +7°C° 0 mm 3 m/s 750 mmHg 95%
03:00 +7°C° 0 mm 3 m/s 750 mmHg 96%
04:00 +8°C° 0 mm 3 m/s 749 mmHg 96%
05:00 +9°C° 0 mm 3 m/s 749 mmHg 96%
06:00 +9°C° 0 mm 3 m/s 749 mmHg 96%
07:00 +11°C° 0.3 mm 4 m/s 749 mmHg 95%
08:00 +12°C° 0.3 mm 4 m/s 748 mmHg 93%
09:00 +14°C° 0.3 mm 4 m/s 748 mmHg 92%
10:00 +14°C° 0.8 mm 4 m/s 748 mmHg 89%
11:00 +15°C° 0.8 mm 4 m/s 748 mmHg 86%
12:00 +17°C° 0.8 mm 3 m/s 748 mmHg 84%
13:00 +18°C° 0.1 mm 3 m/s 748 mmHg 79%
14:00 +18°C° 0.1 mm 3 m/s 748 mmHg 75%
15:00 +19°C° 0.1 mm 3 m/s 748 mmHg 71%
16:00 +19°C° 0.1 mm 3 m/s 748 mmHg 73%
17:00 +19°C° 0.1 mm 3 m/s 748 mmHg 75%
18:00 +19°C° 0.1 mm 3 m/s 748 mmHg 77%
19:00 +18°C° 0 mm 2 m/s 748 mmHg 81%
20:00 +16°C° 0 mm 2 m/s 748 mmHg 86%
21:00 +15°C° 0 mm 2 m/s 748 mmHg 91%
22:00 +14°C° 0 mm 2 m/s 748 mmHg 91%
23:00 +14°C° 0 mm 2 m/s 748 mmHg 92%

14 Mai, Vineri

Timp Temperatura Precipitaţii Vânt Presiune Umiditate
00:00 +13°C° 0 mm 2 m/s 748 mmHg 92%
01:00 +13°C° 0 mm 2 m/s 748 mmHg 93%
02:00 +13°C° 0 mm 2 m/s 748 mmHg 94%
03:00 +13°C° 0 mm 2 m/s 748 mmHg 94%
04:00 +13°C° 0 mm 2 m/s 748 mmHg 95%
05:00 +14°C° 0 mm 2 m/s 748 mmHg 95%
06:00 +14°C° 0 mm 2 m/s 748 mmHg 95%
07:00 +16°C° 0 mm 3 m/s 748 mmHg 90%
08:00 +17°C° 0 mm 3 m/s 748 mmHg 85%
09:00 +19°C° 0 mm 4 m/s 748 mmHg 80%
10:00 +20°C° 0 mm 4 m/s 747 mmHg 75%
11:00 +22°C° 0 mm 5 m/s 747 mmHg 70%
12:00 +23°C° 0 mm 5 m/s 747 mmHg 65%
13:00 +23°C° 0 mm 5 m/s 747 mmHg 66%
14:00 +25°C° 0 mm 5 m/s 747 mmHg 66%
15:00 +25°C° 0 mm 5 m/s 746 mmHg 66%
16:00 +25°C° 0 mm 5 m/s 746 mmHg 69%
17:00 +23°C° 0 mm 5 m/s 746 mmHg 72%
18:00 +23°C° 0 mm 5 m/s 745 mmHg 75%
19:00 +22°C° 0.1 mm 5 m/s 745 mmHg 80%
20:00 +20°C° 0.1 mm 5 m/s 745 mmHg 85%
21:00 +19°C° 0.1 mm 5 m/s 745 mmHg 89%
22:00 +19°C° 0.1 mm 4 m/s 744 mmHg 90%
23:00 +18°C° 0.1 mm 4 m/s 744 mmHg 90%

15 Mai, Sâmbătă

Timp Temperatura Precipitaţii Vânt Presiune Umiditate
00:00 +17°C° 0.1 mm 3 m/s 744 mmHg 90%
01:00 +17°C° 0.1 mm 3 m/s 744 mmHg 91%
02:00 +17°C° 0.1 mm 3 m/s 744 mmHg 91%
03:00 +16°C° 0.1 mm 3 m/s 744 mmHg 92%
04:00 +16°C° 0.5 mm 3 m/s 744 mmHg 91%
05:00 +17°C° 0.5 mm 3 m/s 744 mmHg 91%
06:00 +17°C° 0.5 mm 4 m/s 744 mmHg 90%
07:00 +18°C° 0 mm 3 m/s 744 mmHg 86%
08:00 +20°C° 0 mm 3 m/s 744 mmHg 82%
09:00 +21°C° 0 mm 3 m/s 744 mmHg 77%
10:00 +22°C° 0 mm 3 m/s 744 mmHg 74%
11:00 +23°C° 0 mm 4 m/s 744 mmHg 70%
12:00 +25°C° 0 mm 4 m/s 744 mmHg 67%
13:00 +25°C° 0.7 mm 4 m/s 744 mmHg 66%
14:00 +26°C° 0.7 mm 4 m/s 743 mmHg 66%
15:00 +26°C° 0.7 mm 4 m/s 743 mmHg 66%
16:00 +25°C° 0.8 mm 5 m/s 743 mmHg 68%
17:00 +23°C° 0.8 mm 5 m/s 742 mmHg 71%
18:00 +22°C° 0.8 mm 6 m/s 742 mmHg 74%
19:00 +21°C° 0.5 mm 5 m/s 742 mmHg 79%
20:00 +19°C° 0.5 mm 4 m/s 742 mmHg 85%
21:00 +18°C° 0.5 mm 3 m/s 742 mmHg 90%
22:00 +17°C° 0 mm 3 m/s 742 mmHg 91%
23:00 +16°C° 0 mm 3 m/s 742 mmHg 92%
Arată mai mult

Formular de consimțământ

Meteoprog și furnizorii noștri de servicii pot stoca și accesa date personale, precum cookies, identificatori de dispozitiv sau alte tehnologii similare pe dispozitivul dumneavoastră și procesa astfel de date pentru a personaliza conținutul și reclamele, dar și pentru a oferi caracteristici de social media și pentru a analiza traficul.

  • Stocarea și/sau accesarea informațiilor pe dispozitivul dumneavoastră

    Cookies, identificatori de dispozitiv sau alte informații pot fi stocate sau accesate pe dispozitiv în scopurile indicate mai sus.

  • Reclame și conținut personalizat, evaluarea reclamelor și a conținutului, informații despre audiențe și dezvoltarea produselor

    Reclamele și conținutul pot fi personalizate pe baza unui profil. Pot fi adăugate date suplimentare pentru a personaliza mai bine reclamele și conținutul. Performanța reclamelor și conținutului poate fi măsurată. Pot fi obținute informații despre utilizatorii care au văzut reclamele și conținutul. Aceste date pot fi utilizate pentru a dezvolta sau îmbunătăți experiența utilizatorilor, sistemele și software-ul.

Dând clic pe ‘Sunt de acord’, permiteți utilizarea cookie-urilor menționate, a identificatorilor de dispozitiv, balizelor web sau altor tehnologii similare. Setările pot fi modificate din browser-ul dispozitivului dumneavoastră.

În anumite scopuri, interesele legitime pot prima asupra consimțământului. Puteți citi mai multe informații în acest sens în Politica privind Confidențialitatea Datelor și Cookie.